Location: Firdgum
(53.2488°N, 5.5615°E)
Time: 12:18:14
(UTC+00:00)

Cosmos 1908 Rocket - Pass Details

Date: 08 December 2019
Orbit: 605 x 633 km, 82.5° (Epoch: 26 January)

Event Time Altitude Azimuth Distance (km) Brightness Sun altitude
Rises 06:42:33 0° 182° (S) 2,918 7.4 -7.8°
Reaches altitude 10° 06:44:47 10° 180° (S) 2,015 6.6 -7.5°
Maximum altitude 06:49:13 70° 98° (E) 678 4.0 -6.9°
Drops below altitude 10° 06:53:42 10° 15° (NNE) 2,025 6.1 -6.4°
Sets 06:55:57 0° 13° (NNE) 2,935 6.8 -6.1°
